Hourly Weather Barra de Carrasco

Today, 6 May, Thursday

Time Temperature Precipitation Wind Pressure Humidity
00:00 +11°C° 0 mm 4 mps 767 mmHg 68%
01:00 +10°C° 0 mm 5 mps 767 mmHg 71%
02:00 +10°C° 0 mm 5 mps 766 mmHg 75%
03:00 +9°C° 0 mm 5 mps 766 mmHg 73%
04:00 +9°C° 0 mm 6 mps 766 mmHg 72%
05:00 +9°C° 0 mm 6 mps 766 mmHg 70%
06:00 +9°C° 0 mm 6 mps 766 mmHg 68%
07:00 +10°C° 0 mm 6 mps 767 mmHg 65%
08:00 +11°C° 0 mm 6 mps 767 mmHg 63%
09:00 +13°C° 0 mm 6 mps 767 mmHg 60%
10:00 +13°C° 0 mm 6 mps 767 mmHg 57%
11:00 +14°C° 0 mm 6 mps 767 mmHg 54%
12:00 +15°C° 0 mm 6 mps 766 mmHg 56%
13:00 +15°C° 0 mm 6 mps 766 mmHg 58%
14:00 +15°C° 0 mm 6 mps 766 mmHg 60%
15:00 +14°C° 0 mm 6 mps 766 mmHg 64%
16:00 +13°C° 0 mm 5 mps 766 mmHg 68%
17:00 +13°C° 0 mm 5 mps 766 mmHg 72%
18:00 +13°C° 0 mm 5 mps 766 mmHg 71%
19:00 +13°C° 0 mm 5 mps 766 mmHg 70%
20:00 +14°C° 0 mm 4 mps 766 mmHg 70%
21:00 +14°C° 0 mm 4 mps 766 mmHg 70%
22:00 +14°C° 0 mm 4 mps 766 mmHg 71%
23:00 +14°C° 0 mm 4 mps 766 mmHg 71%

Tomorrow, 7 May, Friday

Time Temperature Precipitation Wind Pressure Humidity
00:00 +13°C° 0 mm 4 mps 766 mmHg 72%
01:00 +13°C° 0 mm 4 mps 766 mmHg 72%
02:00 +12°C° 0 mm 4 mps 766 mmHg 73%
03:00 +12°C° 0 mm 4 mps 766 mmHg 73%
04:00 +12°C° 0 mm 4 mps 766 mmHg 74%
05:00 +12°C° 0 mm 4 mps 766 mmHg 74%
06:00 +13°C° 0 mm 4 mps 767 mmHg 74%
07:00 +13°C° 0 mm 3 mps 767 mmHg 73%
08:00 +14°C° 0 mm 3 mps 768 mmHg 73%
09:00 +16°C° 0.1 mm 3 mps 768 mmHg 71%
10:00 +16°C° 0.1 mm 3 mps 768 mmHg 70%
11:00 +17°C° 0.1 mm 3 mps 768 mmHg 68%
12:00 +17°C° 0 mm 3 mps 768 mmHg 67%
13:00 +17°C° 0 mm 3 mps 768 mmHg 66%
14:00 +17°C° 0 mm 3 mps 768 mmHg 66%
15:00 +16°C° 0 mm 3 mps 768 mmHg 68%
16:00 +14°C° 0 mm 3 mps 768 mmHg 71%
17:00 +13°C° 0 mm 3 mps 768 mmHg 74%
18:00 +13°C° 0 mm 3 mps 769 mmHg 74%
19:00 +12°C° 0 mm 3 mps 769 mmHg 75%
20:00 +13°C° 0 mm 2 mps 769 mmHg 76%
21:00 +12°C° 0 mm 2 mps 769 mmHg 77%
22:00 +12°C° 0 mm 2 mps 770 mmHg 78%
23:00 +10°C° 0 mm 2 mps 770 mmHg 79%

Day after tomorrow, 8 May, Saturday

Time Temperature Precipitation Wind Pressure Humidity
00:00 +10°C° 0 mm 3 mps 770 mmHg 79%
01:00 +10°C° 0 mm 3 mps 769 mmHg 79%
02:00 +9°C° 0 mm 3 mps 769 mmHg 80%
03:00 +9°C° 0 mm 3 mps 769 mmHg 80%
04:00 +9°C° 0 mm 3 mps 769 mmHg 81%
05:00 +8°C° 0 mm 3 mps 770 mmHg 81%
06:00 +9°C° 0 mm 3 mps 770 mmHg 79%
07:00 +10°C° 0 mm 3 mps 770 mmHg 77%
08:00 +11°C° 0 mm 3 mps 771 mmHg 74%
09:00 +12°C° 0 mm 3 mps 771 mmHg 69%
10:00 +15°C° 0 mm 2 mps 770 mmHg 64%
11:00 +17°C° 0 mm 2 mps 770 mmHg 60%
12:00 +17°C° 0 mm 3 mps 770 mmHg 59%
13:00 +18°C° 0 mm 3 mps 769 mmHg 57%
14:00 +18°C° 0 mm 3 mps 769 mmHg 56%
15:00 +17°C° 0 mm 3 mps 769 mmHg 63%
16:00 +16°C° 0 mm 3 mps 768 mmHg 70%
17:00 +14°C° 0 mm 3 mps 768 mmHg 76%
18:00 +13°C° 0 mm 3 mps 768 mmHg 79%
19:00 +13°C° 0 mm 3 mps 768 mmHg 81%
20:00 +12°C° 0 mm 3 mps 769 mmHg 83%
21:00 +12°C° 0 mm 4 mps 769 mmHg 85%
22:00 +12°C° 0 mm 4 mps 769 mmHg 86%
23:00 +11°C° 0 mm 4 mps 769 mmHg 88%

9 May, Sunday

Time Temperature Precipitation Wind Pressure Humidity
00:00 +10°C° 0 mm 5 mps 768 mmHg 89%
01:00 +10°C° 0 mm 5 mps 768 mmHg 90%
02:00 +10°C° 0 mm 5 mps 768 mmHg 91%
03:00 +10°C° 0 mm 5 mps 768 mmHg 91%
04:00 +10°C° 0 mm 5 mps 767 mmHg 92%
05:00 +10°C° 0 mm 5 mps 767 mmHg 92%
06:00 +12°C° 0 mm 5 mps 768 mmHg 91%
07:00 +13°C° 0 mm 5 mps 768 mmHg 89%
08:00 +13°C° 0 mm 5 mps 768 mmHg 88%
09:00 +15°C° 0 mm 6 mps 768 mmHg 83%
10:00 +16°C° 0 mm 6 mps 768 mmHg 78%
11:00 +19°C° 0 mm 6 mps 767 mmHg 73%
12:00 +20°C° 0 mm 6 mps 767 mmHg 71%
13:00 +20°C° 0 mm 6 mps 766 mmHg 69%
14:00 +21°C° 0 mm 5 mps 766 mmHg 67%
15:00 +20°C° 0 mm 5 mps 765 mmHg 72%
16:00 +19°C° 0 mm 4 mps 765 mmHg 77%
17:00 +17°C° 0 mm 4 mps 765 mmHg 83%
18:00 +17°C° 0 mm 4 mps 765 mmHg 83%
19:00 +16°C° 0 mm 5 mps 765 mmHg 83%
20:00 +16°C° 0 mm 5 mps 766 mmHg 84%
21:00 +16°C° 0.1 mm 5 mps 766 mmHg 86%
22:00 +16°C° 0.1 mm 5 mps 765 mmHg 88%
23:00 +15°C° 0.1 mm 5 mps 765 mmHg 90%

10 May, Monday

Time Temperature Precipitation Wind Pressure Humidity
00:00 +15°C° 0.2 mm 4 mps 765 mmHg 92%
01:00 +15°C° 0.2 mm 4 mps 765 mmHg 94%
02:00 +15°C° 0.2 mm 4 mps 765 mmHg 96%
03:00 +15°C° 0.2 mm 4 mps 764 mmHg 96%
04:00 +16°C° 0.2 mm 3 mps 764 mmHg 96%
05:00 +16°C° 0.2 mm 3 mps 764 mmHg 96%
06:00 +16°C° 0.2 mm 3 mps 764 mmHg 96%
07:00 +16°C° 0.2 mm 2 mps 765 mmHg 96%
08:00 +16°C° 0.2 mm 2 mps 765 mmHg 95%
09:00 +17°C° 0.1 mm 2 mps 765 mmHg 92%
10:00 +18°C° 0.1 mm 2 mps 765 mmHg 88%
11:00 +20°C° 0.1 mm 1 mps 764 mmHg 84%
12:00 +20°C° 0 mm 1 mps 764 mmHg 82%
13:00 +19°C° 0 mm 2 mps 764 mmHg 80%
14:00 +20°C° 0 mm 2 mps 763 mmHg 78%
15:00 +19°C° 0 mm 2 mps 763 mmHg 82%
16:00 +18°C° 0 mm 2 mps 763 mmHg 85%
17:00 +18°C° 0 mm 2 mps 763 mmHg 89%
18:00 +17°C° 0 mm 2 mps 763 mmHg 90%
19:00 +18°C° 0 mm 1 mps 763 mmHg 91%
20:00 +18°C° 0 mm 1 mps 764 mmHg 92%
21:00 +18°C° 0 mm 1 mps 763 mmHg 92%
22:00 +18°C° 0 mm 1 mps 763 mmHg 91%
23:00 +18°C° 0 mm 1 mps 763 mmHg 91%

11 May, Tuesday

Time Temperature Precipitation Wind Pressure Humidity
00:00 +18°C° 0 mm 1 mps 763 mmHg 91%
01:00 +18°C° 0 mm 1 mps 763 mmHg 92%
02:00 +18°C° 0 mm 1 mps 763 mmHg 92%
03:00 +18°C° 0 mm 1 mps 762 mmHg 92%
04:00 +16°C° 0 mm 1 mps 762 mmHg 92%
05:00 +16°C° 0 mm 1 mps 762 mmHg 92%
06:00 +18°C° 0 mm 1 mps 762 mmHg 91%
07:00 +18°C° 0 mm 1 mps 763 mmHg 90%
08:00 +18°C° 0 mm 1 mps 763 mmHg 89%
09:00 +18°C° 0 mm 2 mps 763 mmHg 85%
10:00 +19°C° 0 mm 2 mps 762 mmHg 81%
11:00 +20°C° 0 mm 2 mps 762 mmHg 77%
12:00 +20°C° 0 mm 3 mps 762 mmHg 77%
13:00 +20°C° 0 mm 3 mps 761 mmHg 77%
14:00 +20°C° 0 mm 3 mps 761 mmHg 77%
15:00 +19°C° 0 mm 3 mps 761 mmHg 81%
16:00 +18°C° 0 mm 3 mps 761 mmHg 84%
17:00 +18°C° 0 mm 3 mps 761 mmHg 87%
18:00 +17°C° 0 mm 2 mps 761 mmHg 89%
19:00 +17°C° 0 mm 2 mps 761 mmHg 91%
20:00 +17°C° 0 mm 2 mps 761 mmHg 92%
21:00 +17°C° 0 mm 2 mps 761 mmHg 92%
22:00 +17°C° 0 mm 2 mps 761 mmHg 92%
23:00 +18°C° 0 mm 1 mps 760 mmHg 91%
Show more